TimeEST,TemperatureF,Dew PointF,Humidity,Sea Level PressureIn,VisibilityMPH,Wind Direction,Wind SpeedMPH,Gust SpeedMPH,PrecipitationIn,Events,Conditions,WindDirDegrees,DateUTC
12:53 AM,15.1,10.9,84,30.25,10.0,Calm,Calm,-,N/A,,Clear,0,2002-01-01 05:53:00
1:53 AM,12.9,9.0,84,30.25,10.0,Calm,Calm,-,N/A,,Clear,0,2002-01-01 06:53:00
2:53 AM,12.9,10.0,88,30.26,10.0,Calm,Calm,-,N/A,,Clear,0,2002-01-01 07:53:00
3:53 AM,12.9,10.0,88,30.26,9.0,Calm,Calm,-,N/A,,Clear,0,2002-01-01 08:53:00
4:53 AM,10.9,8.1,88,30.26,9.0,Calm,Calm,-,N/A,,Clear,0,2002-01-01 09:53:00
5:53 AM,10.0,6.1,84,30.27,10.0,West,3.5,-,N/A,,Clear,270,2002-01-01 10:53:00
6:53 AM,9.0,5.0,84,30.28,9.0,South,3.5,-,N/A,,Clear,190,2002-01-01 11:53:00
7:53 AM,7.0,3.0,84,30.30,9.0,Calm,Calm,-,N/A,,Clear,0,2002-01-01 12:53:00
8:53 AM,12.0,8.1,84,30.33,8.0,Calm,Calm,-,N/A,,Clear,0,2002-01-01 13:53:00
9:53 AM,16.0,10.0,77,30.35,10.0,WSW,5.8,-,N/A,,Clear,250,2002-01-01 14:53:00
10:53 AM,19.9,10.0,65,30.35,10.0,WNW,3.5,-,N/A,,Clear,290,2002-01-01 15:53:00
11:53 AM,23.0,8.1,53,30.34,10.0,Variable,3.5,-,N/A,,Clear,0,2002-01-01 16:53:00
12:53 PM,26.1,7.0,44,30.32,10.0,WSW,8.1,-,N/A,,Clear,250,2002-01-01 17:53:00
1:53 PM,28.0,5.0,38,30.32,10.0,Variable,5.8,-,N/A,,Clear,0,2002-01-01 18:53:00
2:53 PM,28.9,1.9,32,30.32,10.0,Calm,Calm,-,N/A,,Clear,0,2002-01-01 19:53:00
3:53 PM,30.0,1.9,30,30.33,10.0,North,4.6,-,N/A,,Clear,10,2002-01-01 20:53:00
4:53 PM,28.0,3.9,36,30.35,10.0,WNW,4.6,-,N/A,,Clear,290,2002-01-01 21:53:00
5:53 PM,24.1,5.0,44,30.37,10.0,Calm,Calm,-,N/A,,Clear,0,2002-01-01 22:53:00
6:53 PM,19.9,6.1,55,30.39,10.0,Calm,Calm,-,N/A,,Clear,0,2002-01-01 23:53:00
7:53 PM,17.1,7.0,65,30.40,10.0,Calm,Calm,-,N/A,,Clear,0,2002-01-02 00:53:00
8:53 PM,17.1,7.0,65,30.41,10.0,Calm,Calm,-,N/A,,Clear,0,2002-01-02 01:53:00
9:53 PM,14.0,9.0,80,30.41,10.0,Calm,Calm,-,N/A,,Clear,0,2002-01-02 02:53:00
10:53 PM,15.1,8.1,74,30.40,10.0,NNW,3.5,-,N/A,,Clear,340,2002-01-02 03:53:00
11:53 PM,12.9,6.1,74,30.40,10.0,Calm,Calm,-,N/A,,Clear,0,2002-01-02 04:53:00